Location: Recife
(8.0585°S, 34.8848°W)
Time: 09:49:33
(UTC-03:00)

Transit 2A - Pass Details

Date: 14 April 2026
Orbit: 594 x 950 km, 66.7° (Epoch: 14 May)

Event Time Altitude Azimuth Distance (km) Brightness Sun altitude
Rises 08:05:32 0° 18° (NNE) 2,929 9.4 38.5°
Reaches altitude 10° 08:09:32 10° 53° (NE) 1,967 9.3 39.5°
Maximum altitude 08:10:50 11° 71° (ENE) 1,879 9.3 39.8°
Drops below altitude 10° 08:12:07 10° 88° (E) 1,945 9.2 40.1°
Sets 08:15:58 0° 123° (ESE) 2,832 9.3 41.0°
